Simultaneous Nadir Overpasses (SNOs) Predictions

Prediction of SNOs between FY3D and LANDSAT-8 Satellite Orbit:

Table of predicted SNOs for the next 14.0 days since TLE Epoch: 4/30/2022
Index Date (FY3D) Time (FY3D) Lat,Lon (FY3D) SZA (FY3D ) Date (LANDSAT-8) Time (LANDSAT-8) Lat,Lon (LANDSAT-8) SZA (LANDSAT-8 ) Distance(km) Time Diff (sec)
1 05/01/2022 03:08:09 71.88, 131.78 56.73 05/01/2022 03:08:57 71.90, 131.87 56.75 3.71 48
2 05/01/2022 03:58:52 -71.77, -60.70 123.39 05/01/2022 03:58:27 -71.78, -60.69 123.38 1.15 25
3 05/03/2022 18:35:15 -71.89, 80.02 124.05 05/03/2022 18:36:03 -71.88, 80.08 124.06 2.20 48
4 05/03/2022 19:25:59 71.78,-112.47 55.83 05/03/2022 19:25:30 71.79,-112.44 55.84 1.44 29
5 05/06/2022 10:02:21 71.85, 28.33 55.17 05/06/2022 10:03:06 71.85, 28.26 55.16 2.39 45
6 05/06/2022 10:53:05 -71.79,-164.23 124.92 05/06/2022 10:52:35 -71.79,-164.20 124.91 1.20 30
7 05/09/2022 01:29:26 -71.86, -23.44 125.55 05/09/2022 01:30:09 -71.87, -23.46 125.55 1.04 43
8 05/09/2022 02:20:10 71.76, 144.06 54.34 05/09/2022 02:19:36 71.77, 144.01 54.34 1.79 34
9 05/11/2022 16:56:32 71.85, -75.17 53.75 05/11/2022 16:57:10 71.86, -75.23 53.75 2.12 38
10 05/11/2022 17:47:16 -71.77, 92.29 126.34 05/11/2022 17:46:40 -71.75, 92.22 126.37 3.26 36



Historial Predications of SNOs between FY3D and LANDSAT-8
